Skip Page Navigation
NASA JPL Caltech
NASA Logo - Jet Propulsion Laboratory + View the NASA Portal
+ Center for Near-Earth Object Studies
JPL Home Earth Solar System Stars & Galaxies Technology
JPL Solar System Dynamics
BODIES ORBITS EPHEMERIDES TOOLS PHYSICAL DATA DISCOVERY FAQ SITE MAP
JPL Small-Body Database Browser
Search: [ help ]  
19369 (1997 YO)
Classification: Main-belt Asteroid          SPK-ID: 2019369
Ephemeris | Orbit Diagram | Orbital Elements | Mission Design | Physical Parameters | Discovery Circumstances | Close-Approach Data ]

[ show orbit diagram ]
Orbital Elements at Epoch 2459200.5 (2020-Dec-17.0) TDB
Reference: JPL 43 (heliocentric ecliptic J2000)
 Element Value Uncertainty (1-sigma)   Units 
e .1712045475622446 1.8284e-08  
a 3.137181830206689 1.7815e-08 au
q 2.600082034345659 5.7206e-08 au
i 17.62398218011041 9.3538e-07 deg
node 107.0038066013456 3.8455e-06 deg
peri 26.89295537554469 6.9831e-06 deg
M 27.55107659023852 6.43e-06 deg
tp 2459045.174043492242
(2020-Jul-14.67404349)
3.5422e-05 TDB
period 2029.588359628921
5.56
1.7288e-05
4.733e-08
d
yr
n .1773758694919892 1.5109e-09 deg/d
Q 3.67428162606772 2.0865e-08 au
  Orbit Determination Parameters
   # obs. used (total)      2058  
   data-arc span      11987 days (32.82 yr)  
   first obs. used      1988-05-19  
   last obs. used      2021-03-14  
   planetary ephem.      DE441  
   SB-pert. ephem.      SB441-N16  
   condition code      0  
   norm. resid. RMS      .40074  
   source      ORB  
   producer      Otto Matic  
   solution date      2021-Apr-13 02:52:40  

Additional Information
 Earth MOID = 1.62661 au 
 Jupiter MOID = 1.48302 au 
 T_jup = 3.117 
[ show covariance matrix ]

Ephemeris | Orbit Diagram | Orbital Elements | Mission Design | Physical Parameters | Discovery Circumstances | Close-Approach Data ]

Physical Parameter Table
Parameter Symbol Value Units Sigma Reference Notes
absolute magnitude H 12.17   n/a E2021B10  
diameter diameter 14.305 km 0.084 urn:nasa:pds:neowise_diameters_albedos::2.0[mainbelt] (http://adsabs.harvard.edu/abs/2014ApJ...791..121M)  
rotation period rot_per 14.353 h n/a LCDB (Rev. 2020-October); Warner et al., 2009 Result based on less than full coverage, so that the period may be wrong by 30 percent or so.
Published Reference List:
[Pal, A.; Szakats, R.; Kiss, C.; Bodi, A.; et al. (2019) Ap. J. Supl. Ser. 247, id.26.]
geometric albedo albedo 0.181   0.023 urn:nasa:pds:neowise_diameters_albedos::2.0[mainbelt] (http://adsabs.harvard.edu/abs/2014ApJ...791..121M)  

19369 (1997 YO)          Discovered 1997-Dec-20 by Kobayashi, T. at Oizumi
Reference: 20001211/Numbers.arcLast Updated: 2004-04-19

[ show close-approach data ]
Ephemeris | Orbit Diagram | Orbital Elements | Mission Design | Physical Parameters | Discovery Circumstances | Close-Approach Data ]
ABOUT SSD CREDITS/AWARDS PRIVACY/COPYRIGHT GLOSSARY LINKS
FirstGov 2021-Apr-19 17:08 UT
(server date/time)  
NASA Home Page
Site Manager:   Ryan S. Park
Webmaster  Alan B. Chamberlin